CZ-3B DEB, 41119

Orbit data source: Space-Track

CZ-3B DEB, 41119 is space debris in HEO originally from a launch on Mon, 19 Dec 2011 UTC launched from the Xichang Space Center, China (XSC). Debris objects in space refer to the collection of defunct objects orbiting the Earth. Examples of debris include non-operational satellites, rocket bodies, and fragments generated from explosions, collisions, or faulty payload assembly.

Loading next visibility...
Identifier
41119, 2011-077AJ
Orbit
HEO
Country
Flag of CNCN / PRC
Related business
Manufacturer
CALT
Mission
Spacecraft
Bus & Motor
Unknown
Mass
Unknown
Launch date (UTC)
2011-12-19 (14 years ago)
Launch vehicle
Unknown
Launch site
Xichang Space Center, China (XSC)
Object type
Payload
Rocket body
Debris
Shape & HBR
Unknown shape, 0.2 m
Radar Cross Section
Medium (>0.1 m² and <1 m²)

Expand to show TLE details & history
Last TLE update: 12 hours ago

TLE from 12 hours ago
0 CZ-3B DEB
1 41119U 11077AJ  25301.35215323 -.00000202  00000-0  00000-0 0  9992
2 41119  22.1217  42.2845 7294838 176.5611 195.0517  1.69790795 67066
Epoch: 2025-10-28T08:27Z
TLE epoch observation values (Epoch: 2025-10-28T08:27:06.039Z)
Latitude
-0.00001°
Longitude
-121.44719°
Altitude
44,737.037 km
Speed
1.472 km/s
True Right ascension
02h 49m 04s
True Declination
0° 00' 00"
Sunlit
Object was in daylight at epoch
Visualization orbit readout
Latitude
Unknown
Longitude
Unknown
Altitude
Unknown
Speed
Unknown
Apparent Right ascension
Unknown
Apparent Declination
Unknown
Sunlit
N/A
Visualization observer readout
Local Sidereal Time
15:51:35
Azimuth
Unknown
Elevation
Unknown
Doppler factor
Unknown
Orbital elements
Apogee altitude
44,958.719 km
Perigee altitude
1,651.687 km
Semi-major axis
29,683.34 km
Eccentricity
0.72948
Inclination
22.1217°
RAAN
42.2845°
Arg. of periapsis
176.5611°
True anomaly
183.4532°
Mean anomaly
195.0517°
Eccentric anomaly
188.71717°
Mean motion
0.4244 °/min
Orbital period
848.26 mins
BSTAR
0
Loading maneuver chart data...
Computing Atmospheric mass density...
Loading historical data...
Loading historical data...
Loading historical data...
Loading historical data...
Loading historical data...
Loading historical data...
Loading historical data...

Documentation

Showing up to 5 results
|